カタログに戻る

INTELSAT 501

運用中通信GEO
NORAD 12474·PAYLOAD· XX

打ち上げ May 23, 1981 から Cape Canaveral Space Force Station

Loading…

TLE

最新Source: Space-Track

元期: Sep 13, 2026, 23:57 UTC

1 12474U 81050A   26256.99843641 -.00000248  00000-0  00000-0 0  9992
2 12474  10.8456 324.1395 0006302 266.0195  89.6648  0.98853284138540

AllMySatでINTELSAT 501をリアルタイム追跡

Download on the App Store